,,,PA_Meas_PMT16A,,PR_Meas_QMR101_102,,RH_Meas_QMH101,,SR_Meas_QMS101,,TA_Meas_QMH101,,GenWind,,GenWind,
date,time,status,PA,status,PR,status,RH,status,SR,status,TA,status,DirAvg,status,SpdAvg,
2012-03-03, 00:00:04,VALID,998.402,VALID,0,VALID,95.2177,VALID,0,VALID,22.4136,VALID,56,VALID,0.777734,
2012-03-03, 00:01:04,VALID,998.388,VALID,0,VALID,95.2177,VALID,0,VALID,22.4136,VALID,45,VALID,0.976953,
2012-03-03, 00:02:04,VALID,998.407,VALID,0,VALID,95.2253,VALID,0,VALID,22.3941,VALID,34,VALID,1.12188,
2012-03-03, 00:03:04,VALID,998.413,VALID,0,VALID,95.2177,VALID,0,VALID,22.3941,VALID,23,VALID,1.13008,
2012-03-03, 00:04:04,VALID,998.41,VALID,0.5,VALID,95.21,VALID,0,VALID,22.3941,VALID,24,VALID,1.38164,
2012-03-03, 00:05:04,VALID,998.487,VALID,0,VALID,95.2253,VALID,0,VALID,22.3729,VALID,28,VALID,1.18086,
2012-03-03, 00:06:04,VALID,998.477,VALID,0,VALID,95.2329,VALID,0,VALID,22.3941,VALID,36,VALID,0.98125,
2012-03-03, 00:07:04,VALID,998.526,VALID,0,VALID,95.2482,VALID,0,VALID,22.3746,VALID,49,VALID,1.1918,
2012-03-03, 00:08:04,VALID,998.553,VALID,0,VALID,95.2482,VALID,0,VALID,22.3941,VALID,49,VALID,1.34961,
2012-03-03, 00:09:04,VALID,998.57,VALID,0,VALID,95.2405,VALID,0,VALID,22.3746,VALID,57,VALID,1.52305,
2012-03-03, 00:10:04,VALID,998.605,VALID,0,VALID,95.2329,VALID,0,VALID,22.3534,VALID,64,VALID,1.76328,
2012-03-03, 00:11:04,VALID,998.677,VALID,0,VALID,95.2329,VALID,0,VALID,22.3746,VALID,74,VALID,1.92227,
2012-03-03, 00:12:04,VALID,998.747,VALID,0,VALID,95.2253,VALID,0,VALID,22.3941,VALID,85,VALID,1.23516,
2012-03-03, 00:13:04,VALID,998.817,VALID,0,VALID,95.1948,VALID,0,VALID,22.3941,VALID,94,VALID,2.01172,
2012-03-03, 00:14:04,VALID,998.867,VALID,0,VALID,95.2177,VALID,0,VALID,22.3941,VALID,110,VALID,1.77305,
2012-03-03, 00:15:04,VALID,998.91,VALID,0,VALID,95.2177,VALID,0,VALID,22.3941,VALID,106,VALID,2.04531,
2012-03-03, 00:16:04,VALID,998.964,VALID,0,VALID,95.2177,VALID,0,VALID,22.3941,VALID,112,VALID,1.94102,
2012-03-03, 00:17:04,VALID,998.977,VALID,0,VALID,95.21,VALID,0,VALID,22.3941,VALID,123,VALID,2.75781,
2012-03-03, 00:18:04,VALID,998.923,VALID,0,VALID,95.21,VALID,0,VALID,22.3729,VALID,132,VALID,2.38281,
2012-03-03, 00:19:04,VALID,998.918,VALID,0,VALID,95.21,VALID,0,VALID,22.3941,VALID,133,VALID,2.25547,
2012-03-03, 00:20:04,VALID,998.815,VALID,0,VALID,95.21,VALID,0,VALID,22.3941,VALID,126,VALID,1.93906,
2012-03-03, 00:21:04,VALID,998.698,VALID,0,VALID,95.21,VALID,0,VALID,22.3941,VALID,143,VALID,2.31758,
2012-03-03, 00:22:04,VALID,998.625,VALID,0,VALID,95.1948,VALID,0,VALID,22.3924,VALID,150,VALID,1.85508,
2012-03-03, 00:23:04,VALID,998.518,VALID,0,VALID,95.1795,VALID,0,VALID,22.4314,VALID,163,VALID,1.86914,
2012-03-03, 00:24:04,VALID,998.451,VALID,0.5,VALID,95.1643,VALID,0,VALID,22.4526,VALID,160,VALID,2.05938,
2012-03-03, 00:25:04,VALID,998.407,VALID,0.5,VALID,95.1719,VALID,0,VALID,22.4721,VALID,172,VALID,1.88359,
2012-03-03, 00:26:04,VALID,998.379,VALID,0.5,VALID,95.1643,VALID,0,VALID,22.4509,VALID,156,VALID,2.32383,
2012-03-03, 00:27:04,VALID,998.372,VALID,0.5,VALID,95.1566,VALID,0,VALID,22.4916,VALID,162,VALID,1.55703,
2012-03-03, 00:28:04,VALID,998.376,VALID,0.5,VALID,95.1719,VALID,0,VALID,22.4509,VALID,151,VALID,1.6918,
2012-03-03, 00:29:04,VALID,998.359,VALID,0,VALID,95.1566,VALID,0,VALID,22.4916,VALID,145,VALID,2.17578,
2012-03-03, 00:30:04,VALID,998.348,VALID,0.5,VALID,95.1566,VALID,0,VALID,22.4899,VALID,154,VALID,1.63906,
2012-03-03, 00:31:04,VALID,998.333,VALID,0,VALID,95.1566,VALID,0,VALID,22.5111,VALID,151,VALID,1.80547,
2012-03-03, 00:32:04,VALID,998.294,VALID,0,VALID,95.149,VALID,0,VALID,22.5306,VALID,156,VALID,1.83125,
2012-03-03, 00:33:04,VALID,998.256,VALID,0.5,VALID,95.1566,VALID,0,VALID,22.5289,VALID,156,VALID,1.81367,
2012-03-03, 00:34:04,VALID,998.216,VALID,0,VALID,95.1337,VALID,0,VALID,22.5289,VALID,172,VALID,1.87539,
2012-03-03, 00:35:04,VALID,998.187,VALID,0.5,VALID,95.149,VALID,0,VALID,22.5289,VALID,178,VALID,2.17695,
2012-03-03, 00:36:04,VALID,998.17,VALID,0,VALID,95.1566,VALID,0,VALID,22.5306,VALID,173,VALID,2.31211,
2012-03-03, 00:37:04,VALID,998.143,VALID,0.5,VALID,95.1795,VALID,0,VALID,22.5094,VALID,175,VALID,2.32656,
2012-03-03, 00:38:04,VALID,998.153,VALID,0,VALID,95.1566,VALID,0,VALID,22.5501,VALID,183,VALID,1.93242,
2012-03-03, 00:39:04,VALID,998.156,VALID,0.5,VALID,95.1261,VALID,0,VALID,22.5501,VALID,186,VALID,1.94219,
2012-03-03, 00:40:04,VALID,998.163,VALID,0.5,VALID,95.149,VALID,0,VALID,22.5306,VALID,176,VALID,2.10469,
2012-03-03, 00:41:04,VALID,998.141,VALID,0.5,VALID,95.1566,VALID,0,VALID,22.5306,VALID,177,VALID,2.40977,
2012-03-03, 00:42:04,VALID,998.185,VALID,0.5,VALID,95.1566,VALID,0,VALID,22.5111,VALID,177,VALID,2.41836,
2012-03-03, 00:43:04,VALID,998.193,VALID,0,VALID,95.149,VALID,0,VALID,22.5111,VALID,163,VALID,1.8207,
2012-03-03, 00:44:04,VALID,998.261,VALID,0.5,VALID,95.1566,VALID,0,VALID,22.4899,VALID,155,VALID,2.09102,
2012-03-03, 00:45:04,VALID,998.312,VALID,1,VALID,95.1795,VALID,0,VALID,22.5111,VALID,133,VALID,1.7293,
2012-03-03, 00:46:04,VALID,998.35,VALID,1,VALID,95.1719,VALID,0,VALID,22.5111,VALID,104,VALID,1.75156,
2012-03-03, 00:47:04,VALID,998.364,VALID,1,VALID,95.1643,VALID,0,VALID,22.5111,VALID,96,VALID,1.84883,
2012-03-03, 00:48:04,VALID,998.351,VALID,0.5,VALID,95.1566,VALID,0,VALID,22.4704,VALID,96,VALID,2.47578,
2012-03-03, 00:49:04,VALID,998.323,VALID,0.5,VALID,95.1719,VALID,0,VALID,22.4916,VALID,93,VALID,2.37461,
2012-03-03, 00:50:04,VALID,998.31,VALID,0.5,VALID,95.1795,VALID,0,VALID,22.4526,VALID,96,VALID,2.47852,
2012-03-03, 00:51:04,VALID,998.226,VALID,0.5,VALID,95.2024,VALID,0,VALID,22.3924,VALID,96,VALID,2.97187,
2012-03-03, 00:52:04,VALID,998.141,VALID,0,VALID,95.21,VALID,0,VALID,22.3941,VALID,70,VALID,2.30781,
2012-03-03, 00:53:04,VALID,998.083,VALID,0.5,VALID,95.2177,VALID,0,VALID,22.3746,VALID,83,VALID,2.23398,
2012-03-03, 00:54:04,VALID,998.052,VALID,0.5,VALID,95.2177,VALID,0,VALID,22.3534,VALID,82,VALID,1.88633,
2012-03-03, 00:55:04,VALID,998.032,VALID,0.5,VALID,95.21,VALID,0,VALID,22.3746,VALID,101,VALID,1.45859,
2012-03-03, 00:56:04,VALID,997.978,VALID,0.5,VALID,95.21,VALID,0.104696,VALID,22.3551,VALID,100,VALID,1.95938,
2012-03-03, 00:57:04,VALID,997.926,VALID,1,VALID,95.1871,VALID,0,VALID,22.3339,VALID,100,VALID,1.17891,
2012-03-03, 00:58:04,VALID,997.881,VALID,1,VALID,95.21,VALID,0,VALID,22.3339,VALID,100,VALID,1.39883,
2012-03-03, 00:59:04,VALID,997.786,VALID,1,VALID,95.21,VALID,0,VALID,22.3144,VALID,113,VALID,0.678125,
2012-03-03, 01:00:04,VALID,997.745,VALID,1,VALID,95.2024,VALID,0,VALID,22.3144,VALID,111,VALID,1.98672,
2012-03-03, 01:01:04,VALID,997.713,VALID,0.5,VALID,95.21,VALID,0,VALID,22.3161,VALID,124,VALID,1.86094,
2012-03-03, 01:02:04,VALID,997.707,VALID,1,VALID,95.21,VALID,0,VALID,22.2966,VALID,130,VALID,0.983594,
2012-03-03, 01:03:04,VALID,997.698,VALID,0,VALID,95.21,VALID,0,VALID,22.2966,VALID,130,VALID,1.02383,
2012-03-03, 01:04:04,VALID,997.701,VALID,0.5,VALID,95.2177,VALID,0,VALID,22.2559,VALID,130,VALID,0.628516,
2012-03-03, 01:05:04,VALID,997.672,VALID,0,VALID,95.21,VALID,0,VALID,22.2754,VALID,135,VALID,0.907422,
2012-03-03, 01:06:04,VALID,997.634,VALID,0.5,VALID,95.1871,VALID,0,VALID,22.2559,VALID,153,VALID,0.947266,
2012-03-03, 01:07:04,VALID,997.607,VALID,0,VALID,95.2253,VALID,0,VALID,22.2559,VALID,175,VALID,0.485938,
2012-03-03, 01:08:04,VALID,997.532,VALID,0.5,VALID,95.2253,VALID,0,VALID,22.2576,VALID,175,VALID,0.15625,
2012-03-03, 01:09:04,VALID,997.478,VALID,0.5,VALID,95.1871,VALID,0,VALID,22.2364,VALID,175,VALID,0.351953,
2012-03-03, 01:10:04,VALID,997.41,VALID,0.5,VALID,95.1948,VALID,0,VALID,22.2576,VALID,175,VALID,0.205078,
2012-03-03, 01:11:04,VALID,997.39,VALID,0.5,VALID,95.1948,VALID,0.104696,VALID,22.2559,VALID,175,VALID,0.222266,
2012-03-03, 01:12:04,VALID,997.365,VALID,0.5,VALID,95.2024,VALID,0.104696,VALID,22.2169,VALID,175,VALID,0.373437,
2012-03-03, 01:13:04,VALID,997.325,VALID,0,VALID,95.21,VALID,0,VALID,22.2381,VALID,175,VALID,0.631641,
2012-03-03, 01:14:04,VALID,997.33,VALID,0,VALID,95.2177,VALID,0.104696,VALID,22.2169,VALID,152,VALID,1.02617,
2012-03-03, 01:15:04,VALID,997.309,VALID,0.5,VALID,95.21,VALID,0,VALID,22.2169,VALID,147,VALID,0.871484,
2012-03-03, 01:16:04,VALID,997.29,VALID,0,VALID,95.1948,VALID,0,VALID,22.2169,VALID,147,VALID,0.839453,
2012-03-03, 01:17:04,VALID,997.274,VALID,0,VALID,95.1948,VALID,0,VALID,22.1974,VALID,147,VALID,0.830859,
2012-03-03, 01:18:04,VALID,997.259,VALID,0.5,VALID,95.2024,VALID,0,VALID,22.2169,VALID,147,VALID,0.799609,
2012-03-03, 01:19:04,VALID,997.247,VALID,0,VALID,95.1871,VALID,0,VALID,22.2169,VALID,147,VALID,0.508984,
2012-03-03, 01:20:04,VALID,997.26,VALID,0,VALID,95.1795,VALID,0,VALID,22.2381,VALID,147,VALID,0.566016,
2012-03-03, 01:21:04,VALID,997.213,VALID,0,VALID,95.1948,VALID,0,VALID,22.2186,VALID,147,VALID,0.46875,
2012-03-03, 01:22:04,VALID,997.202,VALID,0,VALID,95.1871,VALID,0,VALID,22.2186,VALID,147,VALID,0.597266,
2012-03-03, 01:23:04,VALID,997.172,VALID,0,VALID,95.1948,VALID,0,VALID,22.2381,VALID,147,VALID,0.519922,
2012-03-03, 01:24:04,VALID,997.138,VALID,0.5,VALID,95.1795,VALID,0,VALID,22.2186,VALID,147,VALID,0.383203,
2012-03-03, 01:25:04,VALID,997.107,VALID,0,VALID,95.1719,VALID,0,VALID,22.2186,VALID,147,VALID,0.491406,
2012-03-03, 01:26:04,VALID,997.082,VALID,0,VALID,95.1795,VALID,0,VALID,22.2592,VALID,147,VALID,0.524219,
2012-03-03, 01:27:04,VALID,997.086,VALID,0,VALID,95.1871,VALID,0,VALID,22.2381,VALID,147,VALID,0.680859,
2012-03-03, 01:28:04,VALID,997.066,VALID,0,VALID,95.1871,VALID,0,VALID,22.2592,VALID,121,VALID,0.946094,
2012-03-03, 01:29:04,VALID,997.049,VALID,0,VALID,95.1643,VALID,0,VALID,22.2788,VALID,120,VALID,1.30156,
2012-03-03, 01:30:04,VALID,997.046,VALID,0,VALID,95.1795,VALID,0,VALID,22.2788,VALID,118,VALID,1.03516,
2012-03-03, 01:31:04,VALID,997.025,VALID,0,VALID,95.1719,VALID,0,VALID,22.2576,VALID,111,VALID,1.36094,
2012-03-03, 01:32:04,VALID,996.995,VALID,0,VALID,95.1795,VALID,0,VALID,22.2576,VALID,113,VALID,1.3,
2012-03-03, 01:33:04,VALID,996.971,VALID,0,VALID,95.149,VALID,0,VALID,22.2381,VALID,112,VALID,1.26836,
2012-03-03, 01:34:04,VALID,996.957,VALID,0,VALID,95.1795,VALID,0,VALID,22.2381,VALID,119,VALID,1.01953,
2012-03-03, 01:35:04,VALID,996.952,VALID,0,VALID,95.1795,VALID,0,VALID,22.2169,VALID,119,VALID,0.441016,
2012-03-03, 01:36:04,VALID,996.93,VALID,0,VALID,95.1871,VALID,0,VALID,22.2169,VALID,119,VALID,0.598047,
2012-03-03, 01:37:04,VALID,996.908,VALID,0,VALID,95.1795,VALID,0,VALID,22.2186,VALID,124,VALID,0.562109,
2012-03-03, 01:38:04,VALID,996.906,VALID,0,VALID,95.1795,VALID,0,VALID,22.199,VALID,131,VALID,0.539063,
2012-03-03, 01:39:04,VALID,996.899,VALID,0,VALID,95.1871,VALID,0,VALID,22.2186,VALID,131,VALID,0.479297,
2012-03-03, 01:40:04,VALID,996.89,VALID,0,VALID,95.1719,VALID,0,VALID,22.2186,VALID,120,VALID,0.551172,
2012-03-03, 01:41:04,VALID,996.85,VALID,0.5,VALID,95.1719,VALID,0,VALID,22.1974,VALID,84,VALID,1.2957,
2012-03-03, 01:42:04,VALID,996.818,VALID,0.5,VALID,95.1871,VALID,0,VALID,22.2186,VALID,86,VALID,1.18242,
2012-03-03, 01:43:04,VALID,996.814,VALID,0.5,VALID,95.1871,VALID,0.104696,VALID,22.199,VALID,96,VALID,0.925391,
2012-03-03, 01:44:04,VALID,996.777,VALID,0,VALID,95.1948,VALID,0.104696,VALID,22.1779,VALID,87,VALID,0.667188,
2012-03-03, 01:45:04,VALID,996.71,VALID,0,VALID,95.1871,VALID,0,VALID,22.1389,VALID,61,VALID,1.41914,
2012-03-03, 01:46:04,VALID,996.701,VALID,0,VALID,95.1871,VALID,0,VALID,22.1405,VALID,67,VALID,1.52109,
2012-03-03, 01:47:04,VALID,996.676,VALID,0,VALID,95.1795,VALID,0.104696,VALID,22.1405,VALID,63,VALID,1.2293,
2012-03-03, 01:48:04,VALID,996.65,VALID,0,VALID,95.21,VALID,0,VALID,22.121,VALID,80,VALID,1.53398,
2012-03-03, 01:49:04,VALID,996.665,VALID,0.5,VALID,95.1948,VALID,0,VALID,22.1015,VALID,88,VALID,0.971094,
2012-03-03, 01:50:04,VALID,996.66,VALID,0,VALID,95.2024,VALID,0,VALID,22.0803,VALID,88,VALID,0.646094,
2012-03-03, 01:51:04,VALID,996.619,VALID,0,VALID,95.2024,VALID,0,VALID,22.0608,VALID,88,VALID,0.613672,
2012-03-03, 01:52:04,VALID,996.607,VALID,0,VALID,95.2024,VALID,0,VALID,22.082,VALID,95,VALID,0.554297,
2012-03-03, 01:53:04,VALID,996.585,VALID,0,VALID,95.21,VALID,0,VALID,22.082,VALID,123,VALID,0.637891,
2012-03-03, 01:54:04,VALID,996.564,VALID,0,VALID,95.2177,VALID,0.104696,VALID,22.0625,VALID,124,VALID,0.747266,
2012-03-03, 01:55:04,VALID,996.509,VALID,0,VALID,95.2024,VALID,0,VALID,22.043,VALID,122,VALID,0.428125,
2012-03-03, 01:56:04,VALID,996.515,VALID,0,VALID,95.2177,VALID,0,VALID,22.043,VALID,114,VALID,0.542578,
2012-03-03, 01:57:04,VALID,996.452,VALID,0,VALID,95.2253,VALID,0,VALID,22.0023,VALID,68,VALID,0.949609,
2012-03-03, 01:58:04,VALID,996.479,VALID,0,VALID,95.2177,VALID,0,VALID,22.004,VALID,68,VALID,0.799609,
2012-03-03, 01:59:04,VALID,996.472,VALID,0,VALID,95.2253,VALID,0,VALID,21.9845,VALID,68,VALID,0.752344,
2012-03-03, 02:00:04,VALID,996.443,VALID,0,VALID,95.2329,VALID,0,VALID,21.9455,VALID,96,VALID,0.733203,
2012-03-03, 02:01:04,VALID,996.405,VALID,0,VALID,95.2253,VALID,0,VALID,21.9455,VALID,102,VALID,0.709766,
2012-03-03, 02:02:04,VALID,996.375,VALID,0,VALID,95.2253,VALID,0,VALID,21.9243,VALID,103,VALID,0.507422,
2012-03-03, 02:03:04,VALID,996.352,VALID,0,VALID,95.2405,VALID,0,VALID,21.926,VALID,103,VALID,0.3875,
2012-03-03, 02:04:04,VALID,996.332,VALID,0,VALID,95.2177,VALID,0,VALID,21.926,VALID,103,VALID,0.397266,
2012-03-03, 02:05:04,VALID,996.295,VALID,0,VALID,95.2253,VALID,0,VALID,21.9065,VALID,103,VALID,0.514844,
2012-03-03, 02:06:04,VALID,996.216,VALID,0,VALID,95.2177,VALID,0,VALID,21.9065,VALID,103,VALID,0.547266,
2012-03-03, 02:07:04,VALID,996.18,VALID,0,VALID,95.2329,VALID,0,VALID,21.8853,VALID,103,VALID,0.511328,
2012-03-03, 02:08:04,VALID,996.128,VALID,0,VALID,95.2405,VALID,0,VALID,21.887,VALID,102,VALID,0.633203,
2012-03-03, 02:09:04,VALID,996.106,VALID,0,VALID,95.2253,VALID,0,VALID,21.887,VALID,102,VALID,0.364062,
2012-03-03, 02:10:04,VALID,996.089,VALID,0,VALID,95.2329,VALID,0,VALID,21.8463,VALID,102,VALID,0.300391,
2012-03-03, 02:11:04,VALID,996.083,VALID,0,VALID,95.2329,VALID,0,VALID,21.8675,VALID,102,VALID,0.172656,
2012-03-03, 02:12:04,VALID,996.057,VALID,0,VALID,95.2253,VALID,0,VALID,21.848,VALID,102,VALID,0,
2012-03-03, 02:13:04,VALID,996.037,VALID,0,VALID,95.2329,VALID,0,VALID,21.848,VALID,102,VALID,0,
2012-03-03, 02:14:04,VALID,996.015,VALID,0,VALID,95.2329,VALID,0,VALID,21.8285,VALID,102,VALID,0,
2012-03-03, 02:15:04,VALID,996.003,VALID,0,VALID,95.2329,VALID,0,VALID,21.809,VALID,102,VALID,0,
2012-03-03, 02:16:04,VALID,995.999,VALID,0,VALID,95.2253,VALID,0,VALID,21.809,VALID,102,VALID,0,
2012-03-03, 02:17:04,VALID,995.994,VALID,0,VALID,95.2253,VALID,0,VALID,21.809,VALID,102,VALID,0.301172,
2012-03-03, 02:18:04,VALID,995.989,VALID,0,VALID,95.2177,VALID,0,VALID,21.8073,VALID,102,VALID,0.720703,
2012-03-03, 02:19:04,VALID,995.969,VALID,0,VALID,95.2405,VALID,0,VALID,21.8285,VALID,145,VALID,0.958984,
2012-03-03, 02:20:04,VALID,995.983,VALID,0,VALID,95.2482,VALID,0,VALID,21.809,VALID,136,VALID,1.4082,
2012-03-03, 02:21:04,VALID,996.002,VALID,0,VALID,95.2405,VALID,0,VALID,21.7895,VALID,136,VALID,1.13125,
2012-03-03, 02:22:04,VALID,996.011,VALID,0,VALID,95.2329,VALID,0,VALID,21.7895,VALID,136,VALID,1.12539,
2012-03-03, 02:23:04,VALID,996.028,VALID,0,VALID,95.2253,VALID,0,VALID,21.7895,VALID,136,VALID,1.00625,
2012-03-03, 02:24:04,VALID,996.099,VALID,0,VALID,95.2405,VALID,0,VALID,21.7895,VALID,136,VALID,1.33984,
2012-03-03, 02:25:04,VALID,996.138,VALID,0,VALID,95.21,VALID,0,VALID,21.7683,VALID,147,VALID,1.29961,
2012-03-03, 02:26:04,VALID,996.149,VALID,0,VALID,95.21,VALID,0,VALID,21.7895,VALID,140,VALID,1.16289,
2012-03-03, 02:27:04,VALID,996.165,VALID,0,VALID,95.2177,VALID,0,VALID,21.7895,VALID,140,VALID,0.91875,
2012-03-03, 02:28:04,VALID,996.153,VALID,0,VALID,95.2177,VALID,0,VALID,21.7895,VALID,130,VALID,0.43125,
2012-03-03, 02:29:04,VALID,996.131,VALID,0,VALID,95.2253,VALID,0,VALID,21.7683,VALID,127,VALID,0.684375,
2012-03-03, 02:30:04,VALID,996.131,VALID,0,VALID,95.2253,VALID,0,VALID,21.7895,VALID,127,VALID,0.458594,
2012-03-03, 02:31:04,VALID,996.124,VALID,0,VALID,95.21,VALID,0,VALID,21.7683,VALID,126,VALID,0.791406,
2012-03-03, 02:32:04,VALID,996.087,VALID,0,VALID,95.2253,VALID,0,VALID,21.7488,VALID,126,VALID,0.346094,
2012-03-03, 02:33:04,VALID,996.069,VALID,0,VALID,95.2253,VALID,0,VALID,21.77,VALID,126,VALID,0.480469,
2012-03-03, 02:34:04,VALID,996.003,VALID,0,VALID,95.2329,VALID,0,VALID,21.7293,VALID,126,VALID,0.521875,
2012-03-03, 02:35:04,VALID,995.962,VALID,0,VALID,95.2253,VALID,0,VALID,21.77,VALID,130,VALID,0.685156,
2012-03-03, 02:36:04,VALID,995.93,VALID,0,VALID,95.2024,VALID,0,VALID,21.7895,VALID,160,VALID,0.813672,
2012-03-03, 02:37:04,VALID,995.949,VALID,0,VALID,95.21,VALID,0,VALID,21.7895,VALID,160,VALID,0.8125,
2012-03-03, 02:38:04,VALID,995.896,VALID,0,VALID,95.2024,VALID,0,VALID,21.7683,VALID,159,VALID,0.755859,
2012-03-03, 02:39:04,VALID,995.923,VALID,0,VALID,95.1948,VALID,0,VALID,21.7878,VALID,151,VALID,0.607813,
2012-03-03, 02:40:04,VALID,995.905,VALID,0,VALID,95.1719,VALID,0,VALID,21.7895,VALID,150,VALID,0.612891,
2012-03-03, 02:41:04,VALID,995.84,VALID,0,VALID,95.2253,VALID,0,VALID,21.7683,VALID,147,VALID,0.551172,
2012-03-03, 02:42:04,VALID,995.813,VALID,0,VALID,95.1948,VALID,0,VALID,21.7895,VALID,147,VALID,0.395312,
2012-03-03, 02:43:04,VALID,995.766,VALID,0,VALID,95.21,VALID,0,VALID,21.77,VALID,147,VALID,0.272656,
2012-03-03, 02:44:04,VALID,995.72,VALID,0,VALID,95.21,VALID,0,VALID,21.77,VALID,148,VALID,0.151562,
2012-03-03, 02:45:04,VALID,995.648,VALID,0,VALID,95.21,VALID,0,VALID,21.7505,VALID,148,VALID,0,
2012-03-03, 02:46:04,VALID,995.612,VALID,0,VALID,95.2177,VALID,0,VALID,21.731,VALID,148,VALID,0,
2012-03-03, 02:47:04,VALID,995.619,VALID,0,VALID,95.2329,VALID,0,VALID,21.6903,VALID,148,VALID,0,
2012-03-03, 02:48:04,VALID,995.584,VALID,0,VALID,95.2253,VALID,0,VALID,21.7115,VALID,148,VALID,0.00429688,
2012-03-03, 02:49:04,VALID,995.64,VALID,0,VALID,95.2177,VALID,0,VALID,21.7115,VALID,148,VALID,0.398828,
2012-03-03, 02:50:04,VALID,995.646,VALID,0,VALID,95.2405,VALID,0,VALID,21.731,VALID,148,VALID,0.386328,
2012-03-03, 02:51:04,VALID,995.65,VALID,0,VALID,95.21,VALID,0,VALID,21.7293,VALID,148,VALID,0,
2012-03-03, 02:52:04,VALID,995.678,VALID,0,VALID,95.2177,VALID,0,VALID,21.7505,VALID,148,VALID,0.0222656,
2012-03-03, 02:53:04,VALID,995.701,VALID,0,VALID,95.2177,VALID,0,VALID,21.7293,VALID,148,VALID,0,
2012-03-03, 02:54:04,VALID,995.646,VALID,0,VALID,95.2024,VALID,0,VALID,21.7098,VALID,148,VALID,0.448438,
2012-03-03, 02:55:04,VALID,995.69,VALID,0,VALID,95.21,VALID,0,VALID,21.731,VALID,148,VALID,0.498047,
2012-03-03, 02:56:04,VALID,995.756,VALID,0,VALID,95.21,VALID,0,VALID,21.692,VALID,147,VALID,0.391406,
2012-03-03, 02:57:04,VALID,995.753,VALID,0,VALID,95.2253,VALID,0.104696,VALID,21.692,VALID,147,VALID,0.346484,
2012-03-03, 02:58:04,VALID,995.793,VALID,0,VALID,95.2253,VALID,0,VALID,21.6741,VALID,147,VALID,0.5875,
2012-03-03, 02:59:04,VALID,995.787,VALID,0,VALID,95.21,VALID,0,VALID,21.6335,VALID,100,VALID,0.69375,
2012-03-03, 03:00:04,VALID,995.761,VALID,0,VALID,95.2405,VALID,0,VALID,21.6335,VALID,62,VALID,0.83125,
2012-03-03, 03:01:04,VALID,995.757,VALID,0,VALID,95.2253,VALID,0,VALID,21.6156,VALID,58,VALID,0.800391,
2012-03-03, 03:02:04,VALID,995.77,VALID,0,VALID,95.2329,VALID,0,VALID,21.5766,VALID,58,VALID,0.685156,
2012-03-03, 03:03:04,VALID,995.794,VALID,0,VALID,95.2634,VALID,0,VALID,21.5571,VALID,58,VALID,0.522266,
2012-03-03, 03:04:04,VALID,995.847,VALID,0,VALID,95.2634,VALID,0,VALID,21.5376,VALID,58,VALID,0.617578,
2012-03-03, 03:05:04,VALID,995.843,VALID,0,VALID,95.2482,VALID,0,VALID,21.5555,VALID,58,VALID,0.660937,
2012-03-03, 03:06:04,VALID,995.894,VALID,0,VALID,95.2558,VALID,0,VALID,21.536,VALID,58,VALID,0.741016,
2012-03-03, 03:07:04,VALID,995.887,VALID,0,VALID,95.2482,VALID,0,VALID,21.5555,VALID,45,VALID,0.986719,
2012-03-03, 03:08:04,VALID,995.901,VALID,0,VALID,95.2558,VALID,0,VALID,21.4953,VALID,36,VALID,0.83125,
2012-03-03, 03:09:04,VALID,995.905,VALID,0,VALID,95.2482,VALID,0,VALID,21.4953,VALID,36,VALID,0.695703,
2012-03-03, 03:10:04,VALID,995.912,VALID,0,VALID,95.2482,VALID,0,VALID,21.5555,VALID,36,VALID,0.335547,
2012-03-03, 03:11:04,VALID,995.927,VALID,0,VALID,95.2253,VALID,0,VALID,21.575,VALID,36,VALID,0.0046875,
2012-03-03, 03:12:04,VALID,995.935,VALID,0,VALID,95.2329,VALID,0,VALID,21.5555,VALID,36,VALID,0.186328,
2012-03-03, 03:13:04,VALID,995.962,VALID,0,VALID,95.2405,VALID,0.104696,VALID,21.5148,VALID,36,VALID,0.382422,
2012-03-03, 03:14:04,VALID,995.996,VALID,0,VALID,95.2329,VALID,0,VALID,21.5555,VALID,36,VALID,0.478906,
2012-03-03, 03:15:04,VALID,996.035,VALID,0,VALID,95.2177,VALID,0,VALID,21.5555,VALID,60,VALID,0.757422,
2012-03-03, 03:16:04,VALID,996.06,VALID,0,VALID,95.21,VALID,0,VALID,21.5945,VALID,93,VALID,0.782031,
2012-03-03, 03:17:04,VALID,996.079,VALID,0,VALID,95.1871,VALID,0,VALID,21.614,VALID,93,VALID,0.810156,
2012-03-03, 03:18:04,VALID,996.058,VALID,0,VALID,95.2177,VALID,0,VALID,21.653,VALID,87,VALID,0.920703,
2012-03-03, 03:19:04,VALID,996.064,VALID,0,VALID,95.1795,VALID,0,VALID,21.6725,VALID,86,VALID,0.511328,
2012-03-03, 03:20:04,VALID,996.067,VALID,0,VALID,95.1719,VALID,0,VALID,21.6741,VALID,86,VALID,0.324219,
2012-03-03, 03:21:04,VALID,996.059,VALID,0,VALID,95.1795,VALID,0,VALID,21.6546,VALID,86,VALID,0.229297,
2012-03-03, 03:22:04,VALID,996.096,VALID,0,VALID,95.1795,VALID,0,VALID,21.6335,VALID,86,VALID,0.0882813,
2012-03-03, 03:23:04,VALID,996.09,VALID,0,VALID,95.1948,VALID,0,VALID,21.6546,VALID,86,VALID,0,
2012-03-03, 03:24:04,VALID,996.078,VALID,0,VALID,95.1719,VALID,0,VALID,21.653,VALID,86,VALID,0,
2012-03-03, 03:25:04,VALID,996.064,VALID,0,VALID,95.1871,VALID,0,VALID,21.6741,VALID,86,VALID,0,
2012-03-03, 03:26:04,VALID,996.051,VALID,0,VALID,95.1871,VALID,0,VALID,21.6725,VALID,86,VALID,0,
2012-03-03, 03:27:04,VALID,996.033,VALID,0,VALID,95.1719,VALID,0,VALID,21.7131,VALID,94,VALID,0,
2012-03-03, 03:28:04,VALID,995.987,VALID,0,VALID,95.1719,VALID,0,VALID,21.731,VALID,201,VALID,0.983203,
2012-03-03, 03:29:04,VALID,995.935,VALID,0,VALID,95.1643,VALID,0,VALID,21.7895,VALID,190,VALID,1.45703,
2012-03-03, 03:30:04,VALID,995.953,VALID,0,VALID,95.1337,VALID,0,VALID,21.8496,VALID,191,VALID,1.40742,
2012-03-03, 03:31:04,VALID,995.911,VALID,0,VALID,95.1032,VALID,0,VALID,21.9082,VALID,188,VALID,1.50273,
2012-03-03, 03:32:04,VALID,995.899,VALID,0,VALID,95.1032,VALID,0,VALID,21.9277,VALID,199,VALID,1.46953,
2012-03-03, 03:33:04,VALID,995.872,VALID,0,VALID,95.1185,VALID,0,VALID,21.9667,VALID,186,VALID,1.10898,
2012-03-03, 03:34:04,VALID,995.896,VALID,0,VALID,95.1108,VALID,0,VALID,21.9667,VALID,185,VALID,0.774219,
2012-03-03, 03:35:04,VALID,995.902,VALID,0,VALID,95.1108,VALID,0,VALID,21.965,VALID,178,VALID,0.735156,
2012-03-03, 03:36:04,VALID,995.95,VALID,0,VALID,95.088,VALID,0,VALID,21.9862,VALID,169,VALID,1.00234,
2012-03-03, 03:37:04,VALID,995.957,VALID,0,VALID,95.0956,VALID,0,VALID,21.9862,VALID,169,VALID,0.728906,
2012-03-03, 03:38:04,VALID,995.983,VALID,0,VALID,95.088,VALID,0,VALID,22.0057,VALID,169,VALID,1.02969,
2012-03-03, 03:39:04,VALID,996.02,VALID,0,VALID,95.1185,VALID,0,VALID,22.0057,VALID,168,VALID,0.776563,
2012-03-03, 03:40:04,VALID,996.078,VALID,0,VALID,95.1108,VALID,0,VALID,21.965,VALID,168,VALID,0.723828,
2012-03-03, 03:41:04,VALID,996.118,VALID,0,VALID,95.0956,VALID,0,VALID,21.9862,VALID,168,VALID,0.622266,
2012-03-03, 03:42:04,VALID,996.172,VALID,0,VALID,95.1108,VALID,0,VALID,21.9862,VALID,168,VALID,0.60625,
2012-03-03, 03:43:04,VALID,996.202,VALID,0,VALID,95.1108,VALID,0,VALID,21.965,VALID,168,VALID,0.600781,
2012-03-03, 03:44:04,VALID,996.219,VALID,0,VALID,95.1185,VALID,0,VALID,21.9667,VALID,168,VALID,0.377734,
2012-03-03, 03:45:04,VALID,996.239,VALID,0,VALID,95.1108,VALID,0,VALID,21.9667,VALID,168,VALID,0.498437,
2012-03-03, 03:46:04,VALID,996.247,VALID,0,VALID,95.1185,VALID,0,VALID,21.9455,VALID,168,VALID,0.833203,